• In Netherlands
  • List of Countries
  • For 7 days
  • Water Temperature
  • Satellite Maps
  • Weather Map
  • Weather Widgets
  • user-avatar
    Login

    Hourly Weather Gjirokaster

    Today, 29 March, Wednesday

    Time Temperature Precipitation Wind Pressure Humidity
    00:00 +1°C° 0 mm 2 mps 652 mmHg 69%
    01:00 +1°C° 0 mm 2 mps 652 mmHg 67%
    02:00 +1°C° 0 mm 2 mps 652 mmHg 67%
    03:00 +1°C° 0 mm 2 mps 652 mmHg 66%
    04:00 +1°C° 0 mm 2 mps 652 mmHg 65%
    05:00 +2°C° 0 mm 2 mps 652 mmHg 63%
    06:00 +3°C° 0 mm 2 mps 653 mmHg 61%
    07:00 +4°C° 0 mm 2 mps 653 mmHg 59%
    08:00 +6°C° 0 mm 2 mps 654 mmHg 52%
    09:00 +9°C° 0 mm 1 mps 654 mmHg 44%
    10:00 +12°C° 0 mm 1 mps 655 mmHg 37%
    11:00 +12°C° 0 mm 2 mps 655 mmHg 35%
    12:00 +13°C° 0 mm 2 mps 655 mmHg 34%
    13:00 +13°C° 0 mm 3 mps 655 mmHg 32%
    14:00 +12°C° 0 mm 3 mps 654 mmHg 35%
    15:00 +12°C° 0 mm 3 mps 654 mmHg 37%
    16:00 +11°C° 0 mm 3 mps 653 mmHg 40%
    17:00 +9°C° 0 mm 3 mps 653 mmHg 50%
    18:00 +5°C° 0 mm 3 mps 652 mmHg 60%
    19:00 +3°C° 0 mm 2 mps 652 mmHg 71%
    20:00 +3°C° 0 mm 2 mps 652 mmHg 69%
    21:00 +3°C° 0 mm 2 mps 652 mmHg 68%
    22:00 +2°C° 0 mm 2 mps 652 mmHg 67%
    23:00 +2°C° 0 mm 2 mps 652 mmHg 65%

    Tomorrow, 30 March, Thursday

    Time Temperature Precipitation Wind Pressure Humidity
    00:00 +2°C° 0 mm 2 mps 652 mmHg 63%
    01:00 +2°C° 0 mm 2 mps 652 mmHg 60%
    02:00 +2°C° 0 mm 2 mps 652 mmHg 60%
    03:00 +2°C° 0 mm 2 mps 652 mmHg 59%
    04:00 +2°C° 0 mm 2 mps 652 mmHg 59%
    05:00 +3°C° 0 mm 2 mps 652 mmHg 58%
    06:00 +4°C° 0 mm 2 mps 652 mmHg 57%
    07:00 +5°C° 0 mm 2 mps 653 mmHg 57%
    08:00 +7°C° 0 mm 2 mps 653 mmHg 51%
    09:00 +10°C° 0 mm 2 mps 654 mmHg 45%
    10:00 +13°C° 0 mm 2 mps 654 mmHg 40%
    11:00 +14°C° 0 mm 2 mps 654 mmHg 38%
    12:00 +13°C° 0 mm 3 mps 654 mmHg 37%
    13:00 +14°C° 0 mm 3 mps 654 mmHg 35%
    14:00 +13°C° 0 mm 4 mps 654 mmHg 38%
    15:00 +13°C° 0 mm 4 mps 654 mmHg 41%
    16:00 +13°C° 0 mm 4 mps 653 mmHg 44%
    17:00 +10°C° 0 mm 4 mps 653 mmHg 53%
    18:00 +7°C° 0 mm 4 mps 653 mmHg 62%
    19:00 +5°C° 0 mm 3 mps 653 mmHg 72%
    20:00 +5°C° 0 mm 3 mps 653 mmHg 71%
    21:00 +4°C° 0 mm 3 mps 653 mmHg 71%
    22:00 +4°C° 0 mm 3 mps 653 mmHg 71%
    23:00 +4°C° 0 mm 3 mps 653 mmHg 71%

    Day after tomorrow, 31 March, Friday

    Time Temperature Precipitation Wind Pressure Humidity
    00:00 +4°C° 0 mm 2 mps 653 mmHg 72%
    01:00 +4°C° 0 mm 2 mps 653 mmHg 73%
    02:00 +4°C° 0 mm 2 mps 653 mmHg 74%
    03:00 +3°C° 0 mm 2 mps 653 mmHg 76%
    04:00 +3°C° 0 mm 2 mps 653 mmHg 78%
    05:00 +4°C° 0 mm 2 mps 653 mmHg 75%
    06:00 +5°C° 0 mm 2 mps 654 mmHg 72%
    07:00 +6°C° 0 mm 2 mps 654 mmHg 69%
    08:00 +8°C° 0 mm 2 mps 655 mmHg 61%
    09:00 +10°C° 0 mm 2 mps 655 mmHg 53%
    10:00 +13°C° 0 mm 1 mps 656 mmHg 45%
    11:00 +14°C° 0 mm 2 mps 656 mmHg 44%
    12:00 +14°C° 0 mm 2 mps 656 mmHg 42%
    13:00 +15°C° 0 mm 2 mps 656 mmHg 41%
    14:00 +14°C° 0.1 mm 2 mps 655 mmHg 45%
    15:00 +13°C° 0.1 mm 2 mps 655 mmHg 49%
    16:00 +12°C° 0.1 mm 2 mps 654 mmHg 54%
    17:00 +10°C° 0 mm 2 mps 654 mmHg 60%
    18:00 +8°C° 0 mm 2 mps 654 mmHg 67%
    19:00 +8°C° 0 mm 1 mps 654 mmHg 73%
    20:00 +7°C° 0 mm 1 mps 654 mmHg 74%
    21:00 +7°C° 0 mm 1 mps 654 mmHg 74%
    22:00 +6°C° 0 mm 1 mps 654 mmHg 75%
    23:00 +6°C° 0 mm 1 mps 654 mmHg 75%

    1 April, Saturday

    Time Temperature Precipitation Wind Pressure Humidity
    00:00 +5°C° 0 mm 1 mps 654 mmHg 76%
    01:00 +4°C° 0 mm 2 mps 653 mmHg 76%
    02:00 +3°C° 0 mm 2 mps 653 mmHg 76%
    03:00 +3°C° 0 mm 2 mps 653 mmHg 76%
    04:00 +3°C° 0 mm 2 mps 653 mmHg 76%
    05:00 +4°C° 0 mm 2 mps 653 mmHg 73%
    06:00 +4°C° 0 mm 2 mps 653 mmHg 70%
    07:00 +5°C° 0 mm 2 mps 653 mmHg 67%
    08:00 +7°C° 0 mm 2 mps 654 mmHg 61%
    09:00 +9°C° 0 mm 2 mps 655 mmHg 54%
    10:00 +13°C° 0 mm 2 mps 655 mmHg 48%
    11:00 +13°C° 0 mm 2 mps 655 mmHg 47%
    12:00 +12°C° 0 mm 3 mps 654 mmHg 46%
    13:00 +12°C° 0 mm 3 mps 654 mmHg 46%
    14:00 +12°C° 0.1 mm 3 mps 654 mmHg 50%
    15:00 +11°C° 0.1 mm 3 mps 653 mmHg 54%
    16:00 +10°C° 0.1 mm 2 mps 653 mmHg 58%
    17:00 +8°C° 0.1 mm 2 mps 653 mmHg 66%
    18:00 +6°C° 0.1 mm 2 mps 652 mmHg 75%
    19:00 +5°C° 0.1 mm 1 mps 652 mmHg 83%
    20:00 +4°C° 0 mm 2 mps 652 mmHg 83%
    21:00 +4°C° 0 mm 2 mps 652 mmHg 83%
    22:00 +4°C° 0 mm 2 mps 653 mmHg 82%
    23:00 +4°C° 0 mm 2 mps 652 mmHg 84%

    2 April, Sunday

    Time Temperature Precipitation Wind Pressure Humidity
    00:00 +2°C° 0 mm 3 mps 652 mmHg 85%
    01:00 +2°C° 0 mm 3 mps 652 mmHg 87%
    02:00 +1°C° 0 mm 3 mps 652 mmHg 88%
    03:00 +1°C° 0 mm 3 mps 652 mmHg 88%
    04:00 +1°C° 0 mm 3 mps 651 mmHg 89%
    05:00 +2°C° 0 mm 3 mps 652 mmHg 84%
    06:00 +3°C° 0 mm 3 mps 652 mmHg 79%
    07:00 +4°C° 0 mm 3 mps 653 mmHg 75%
    08:00 +7°C° 0 mm 3 mps 653 mmHg 65%
    09:00 +9°C° 0 mm 3 mps 654 mmHg 54%
    10:00 +11°C° 0 mm 4 mps 655 mmHg 44%
    11:00 +11°C° 0.1 mm 4 mps 654 mmHg 44%
    12:00 +11°C° 0.1 mm 4 mps 654 mmHg 43%
    13:00 +12°C° 0.1 mm 4 mps 654 mmHg 43%
    14:00 +11°C° 0.1 mm 4 mps 654 mmHg 47%
    15:00 +10°C° 0.1 mm 4 mps 653 mmHg 52%
    16:00 +10°C° 0.1 mm 3 mps 653 mmHg 56%
    17:00 +8°C° 0.3 mm 3 mps 653 mmHg 65%
    18:00 +7°C° 0.3 mm 3 mps 653 mmHg 73%
    19:00 +5°C° 0.3 mm 2 mps 652 mmHg 82%
    20:00 +4°C° 0.2 mm 3 mps 652 mmHg 83%
    21:00 +4°C° 0.2 mm 3 mps 652 mmHg 83%
    22:00 +4°C° 0.2 mm 3 mps 652 mmHg 84%
    23:00 +3°C° 0.1 mm 3 mps 652 mmHg 83%

    3 April, Monday

    Time Temperature Precipitation Wind Pressure Humidity
    00:00 +4°C° 0.1 mm 2 mps 652 mmHg 83%
    01:00 +4°C° 0.1 mm 2 mps 652 mmHg 82%
    02:00 +4°C° 0.2 mm 2 mps 651 mmHg 83%
    03:00 +4°C° 0.2 mm 2 mps 651 mmHg 83%
    04:00 +3°C° 0.2 mm 2 mps 650 mmHg 83%
    05:00 +3°C° 0.1 mm 3 mps 651 mmHg 82%
    06:00 +3°C° 0.1 mm 3 mps 651 mmHg 80%
    07:00 +3°C° 0.1 mm 3 mps 651 mmHg 78%
    08:00 +5°C° 0.1 mm 4 mps 651 mmHg 70%
    09:00 +6°C° 0.1 mm 4 mps 651 mmHg 62%
    10:00 +8°C° 0.1 mm 5 mps 652 mmHg 54%
    11:00 +8°C° 0.2 mm 5 mps 651 mmHg 56%
    12:00 +7°C° 0.2 mm 5 mps 651 mmHg 59%
    13:00 +7°C° 0.2 mm 5 mps 651 mmHg 61%
    14:00 +7°C° 0.5 mm 4 mps 650 mmHg 66%
    15:00 +6°C° 0.5 mm 4 mps 650 mmHg 71%
    16:00 +5°C° 0.5 mm 3 mps 649 mmHg 76%
    17:00 +4°C° 1.5 mm 3 mps 649 mmHg 81%
    18:00 +3°C° 1.5 mm 3 mps 649 mmHg 87%
    19:00 +2°C° 1.5 mm 3 mps 649 mmHg 93%
    20:00 +2°C° 1.7 mm 3 mps 649 mmHg 93%
    21:00 +2°C° 1.7 mm 3 mps 649 mmHg 93%
    22:00 +3°C° 1.7 mm 2 mps 649 mmHg 93%
    23:00 +3°C° 0.4 mm 2 mps 649 mmHg 92%
    Show more